Location: Caltech
(34.1382°N, 118.1253°W)
Time: 15:25:55
(UTC-07:00)

FENGYUN 3A - Visible Passes

Search period start: 26 September 2016 00:00
Search period end: 06 October 2016 00:00
Orbit: 820 x 833 km, 98.4° (Epoch: 26 September)

Date Brightness Start Highest point End Pass type
(mag) Time Alt. Az. Time Alt. Az. Time Alt. Az.
26 Sep 4.1 19:48:13 14° SE 19:52:26 39° ENE 19:57:23 10° N visible
26 Sep 5.8 21:29:43 14° SW 21:32:44 22° W 21:36:50 10° NW visible
27 Sep 4.6 19:29:21 10° ESE 19:33:42 26° ENE 19:38:05 10° NNE visible
27 Sep 5.1 21:10:47 20° SSW 21:13:44 33° W 21:18:35 10° NNW visible
28 Sep 5.1 19:11:36 10° ESE 19:15:02 18° ENE 19:18:28 10° NNE visible
28 Sep 4.3 20:51:51 25° SSW 20:54:48 51° W 21:00:03 10° NNW visible
29 Sep 3.7 20:32:55 27° S 20:35:54 79° WSW 20:41:19 10° NNW visible
30 Sep 3.5 20:13:59 26° SSE 20:17:03 68° ENE 20:22:25 10° N visible
30 Sep 6.4 21:55:48 10° WSW 21:57:43 12° W 21:59:38 10° WNW visible
01 Oct 3.9 19:55:03 21° SE 19:58:16 45° ENE 20:03:23 10° N visible
01 Oct 6.0 21:36:34 15° WSW 21:38:39 19° W 21:42:24 10° NW visible
02 Oct 4.4 19:36:08 16° ESE 19:39:31 30° ENE 19:44:09 10° N visible
02 Oct 5.3 21:17:38 23° SW 21:19:39 29° W 21:24:17 10° NW visible
03 Oct 4.9 19:17:13 11° ESE 19:20:50 20° ENE 19:24:40 10° NNE visible
03 Oct 4.6 20:58:43 31° SSW 21:00:41 44° W 21:05:50 10° NNW visible
04 Oct 5.3 18:59:43 10° E 19:02:12 13° ENE 19:04:40 10° NE visible
04 Oct 3.8 20:39:48 39° S 20:41:46 69° WSW 20:47:10 10° NNW visible
05 Oct 3.5 20:20:52 39° SSE 20:22:55 79° ENE 20:28:19 10° N visible
